#timestamp,LO_Frequency,Hit,StdDev 
1614816015.7,286046997.1,N
1614816035.6,286046998.8,N
1614816055.4,286047000.8,N
1614816075.2,286046999.7,N
1614816095.1,286047004.1,N
1614816096.0,286047004.1,N
1614816145.8,286047001.7,E
1614816155.8,286047002.8,N
1614816175.6,286046998.5,P
1614816195.4,286046998.5,N
1614816215.3,286046998.4,N
1614816235.1,286046998.3,N
1614816255.8,286047000.2,N
1614816275.7,286047002.6,N
1614816295.5,286047000.3,N
1614816315.4,286046998.1,N
1614816335.2,286046999.8,N
1614816355.0,286047002.3,N
1614816355.9,286047002.3,N
1614816375.8,286046999.5,N
1614816395.6,286046997.4,N
1614816415.4,286046997.8,N
1614816435.3,286046999.0,N
1614816455.1,286046996.9,N
1614816475.9,286046995.2,N
1614816495.7,286046996.8,N
1614816515.5,286046995.9,N
1614816535.4,286046997.6,N
1614816555.2,286046996.3,N
1614816575.0,286046995.0,N
1614816575.9,286046995.0,N
1614816595.8,286046997.8,N
1614816615.6,286046996.2,N
1614816635.4,286046996.3,N
1614816655.3,286046997.7,N
1614816675.1,286046999.3,N
1614816695.9,286046997.2,N
1614816715.7,286046997.8,N
1614816735.5,286046997.9,N
1614816755.4,286046993.8,Y
1614816775.2,286046996.0,P
1614816795.0,286046995.7,P
1614816796.0,286046995.7,P
1614816815.8,286046994.3,Y
1614816835.6,286046997.0,P
1614816855.5,286046997.0,P
1614816875.3,286047001.0,P
1614816895.1,286047000.9,N
1614816915.9,286047004.4,N
1614816935.7,286047001.0,N
1614816955.6,286047003.5,N
1614816975.4,286047005.6,N
1614816995.2,286047005.6,N
1614817015.1,286047005.4,N
1614817016.0,286047005.4,N
1614817035.8,286047004.5,N
1614817055.6,286047008.4,N
1614817075.5,286047009.4,N
1614817095.3,286047011.6,N
1614817115.2,286047015.1,Y
1614817135.9,286047008.3,P
1614817155.7,286047009.2,P
1614817175.6,286047008.6,P
1614817195.4,286047007.4,Y
1614817215.2,286047000.8,P
1614817235.1,286046996.5,N
1614817236.0,286046996.5,N
1614817255.8,286047001.3,N
1614817275.7,286047002.2,N
1614817295.5,286047003.0,N
1614817315.3,286047002.8,N
1614817335.2,286046997.2,N
1614817355.0,286046999.4,N
1614817355.9,286046999.4,N
1614817375.7,286046997.3,N
1614817395.6,286046997.7,N
1614817415.4,286046997.2,N
1614817435.3,286046998.5,N
1614817455.1,286046999.2,N
1614817456.0,286046999.2,N
1614817475.8,286046996.8,N
1614817495.7,286046998.1,N
1614817515.5,286047002.4,N
1614817535.3,286047003.3,N
1614817555.2,286047002.2,N
1614817575.0,286047000.4,N
1614817575.9,286047000.4,N
1614817595.8,286046997.3,N
1614817615.6,286046999.5,N
1614817635.4,286046996.6,N
1614817655.3,286046997.9,N
1614817675.1,286046996.6,N
1614817695.9,286046997.0,N
1614817715.7,286046997.8,N
1614817735.5,286046997.8,N
1614817755.4,286046996.9,N
1614817775.2,286046996.3,N
1614817795.0,286046995.4,N
1614817795.9,286046995.4,N
1614817815.8,286046996.4,N
1614817835.6,286046995.2,N
1614817855.4,286046995.0,N
1614817875.3,286046996.6,N
1614817895.1,286046997.4,N
1614817915.9,286046997.2,N
1614817935.7,286046997.1,N
1614817955.5,286046995.0,N
1614817975.4,286046995.2,N
1614817995.2,286046997.3,N
1614818015.0,286046999.9,N
1614818015.9,286046999.9,N
1614818035.8,286046998.0,N
1614818055.6,286046997.2,N
1614818075.5,286046997.8,N
1614818095.3,286046997.1,N
1614818115.1,286046994.9,Y
1614818135.9,286046999.6,P
1614818155.7,286047000.1,N
1614818175.6,286047001.6,N
1614818195.4,286047000.4,N
1614818215.2,286046999.8,N
1614818235.1,286047000.3,N
1614818236.0,286047000.3,N
1614818255.8,286046998.5,N
1614818275.6,286046999.3,N
1614818295.5,286047000.2,N
1614818315.3,286047002.0,N
1614818335.2,286047000.9,N
1614818355.9,286047001.2,N
1614818375.7,286046998.8,N
1614818395.6,286046999.9,N
1614818415.4,286046998.9,N
1614818435.3,286046998.6,N
1614818455.1,286046997.9,N
1614818456.0,286046997.9,N
1614818475.8,286046994.8,Y
1614818495.7,286046993.7,P
1614818515.5,286046996.3,N
1614818535.3,286046995.1,N
1614818555.2,286046992.1,Y
1614818575.0,286046998.6,P
1614818575.9,286046998.6,N
1614818595.8,286046997.6,N
1614818615.6,286047000.2,N
1614818635.4,286046998.8,N
1614818655.3,286046998.4,N
1614818675.1,286046999.5,N
1614818695.9,286046998.5,N
1614818715.7,286046996.8,Y
1614818735.5,286046999.5,P
1614818755.4,286046996.5,P
1614818775.2,286047000.9,N
1614818795.0,286046997.0,N
1614818795.9,286046997.0,N
1614818815.8,286046997.9,N
1614818835.6,286046995.9,N
1614818855.5,286046995.0,Y
1614818875.3,286047001.7,P
1614818895.1,286047002.1,N
1614818915.9,286047000.5,N
1614818935.7,286047002.2,N
1614818955.5,286047001.7,N
1614818975.4,286046999.9,N
1614818995.2,286046998.4,N
1614819015.1,286047002.8,N
1614819016.0,286047002.8,N
1614819035.8,286047002.5,N
1614819055.6,286047000.8,N
1614819075.5,286047001.2,N
1614819095.3,286046999.8,N
1614819115.1,286047001.1,N
1614819135.9,286047003.6,N
1614819155.7,286047001.9,N
1614819175.6,286047002.1,N
1614819195.4,286047002.1,N
1614819215.2,286047000.8,N
1614819235.1,286047002.8,N
1614819236.0,286047002.8,N
1614819255.8,286046998.2,N
1614819275.6,286047000.1,N
1614819295.5,286047002.8,N
1614819315.3,286047000.3,N
1614819335.2,286047000.4,N
1614819355.9,286047000.6,N
1614819375.7,286046998.5,N
1614819395.6,286046998.6,N
1614819415.4,286046998.8,N
1614819435.2,286047002.1,N
1614819455.1,286047002.4,N
1614819456.0,286047002.4,N
1614819475.8,286046998.3,N
1614819495.7,286047000.1,N
1614819515.5,286047002.5,N
1614819535.3,286047000.2,N
1614819555.2,286046998.7,N
1614819575.9,286046998.1,N
1614819595.7,286047000.7,N
